Location: Home
(42.5358°N, 72.7383°W)
Time: 11:18:31
(UTC-05:00)

S-56A Canister/Altair - Pass Details

Date: 29 November 2021
Orbit: 634 x 2499 km, 38.9° (Epoch: 22 January)

Event Time Altitude Azimuth Distance (km) Brightness Sun altitude
Rises 00:42:05 0° 227° (SW) 4,759 - -65.2°
Reaches altitude 10° 00:46:01 10° 219° (SW) 3,449 - -64.8°
Maximum altitude 00:53:10 34° 159° (SSE) 1,653 - -63.9°
Drops below altitude 10° 00:58:18 10° 96° (E) 2,449 - -63.3°
Sets 01:00:38 0° 86° (E) 3,225 - -63.0°
